KG4WIV Weather Reports


time (UTC)temp
C
wind
direction
speed
KPH
gust
KPH
rain 1hr
cm
rain 24hr
cm
rain mn
cm
humidity
%
barometer
mb
20260505123032 10 257 0.0 0.0 0.00 0.00 0.00 95 1015.9
20260505121535 9 257 0.0 0.0 0.00 0.00 0.00 95 1015.8
20260505120040 8 257 0.0 0.0 0.00 0.00 0.00 95 1015.8
20260505113021 7 257 0.0 0.0 0.00 0.00 0.00 94 1015.3
20260505111522 7 257 0.0 0.0 0.00 0.00 0.00 94 1014.9
20260505101525 8 257 0.0 0.0 0.00 0.00 0.00 93 1014.7
20260505100025 8 257 0.0 0.0 0.00 0.00 0.00 93 1014.8
20260505093020 8 257 0.0 0.0 0.00 0.00 0.00 92 1014.8
20260505091519 8 257 0.0 0.0 0.00 0.00 0.00 92 1014.7
20260505090016 8 257 0.0 0.0 0.00 0.00 0.00 92 1015.1
20260505083011 8 257 0.0 1.6 0.00 0.00 0.00 92 1015.0
20260505081516 8 257 0.0 0.0 0.00 0.00 0.00 91 1015.0
20260505080009 8 257 0.0 1.6 0.00 0.00 0.00 91 1015.0
20260505073012 9 257 0.0 0.0 0.00 0.00 0.00 91 1015.1
20260505071511 9 257 0.0 0.0 0.00 0.00 0.00 90 1015.1
20260505070010 9 257 0.0 0.0 0.00 0.00 0.00 90 1015.1
20260505063011 10 257 0.0 0.0 0.00 0.00 0.00 89 1015.0
20260505061517 10 257 0.0 0.0 0.00 0.00 0.00 88 1015.2
20260505060010 10 257 0.0 0.0 0.00 0.00 0.00 88 1015.2
20260505053006 11 257 0.0 0.0 0.00 0.00 0.00 86 1015.4
20260505051503 11 257 0.0 0.0 0.00 0.00 0.00 85 1015.3
20260505040047 12 257 0.0 0.0 0.00 0.00 0.00 81 1015.1
20260505040012 12 257 0.0 0.0 0.00 0.00 0.00 80 1015.1
20260505033008 13 257 0.0 0.0 0.00 0.00 0.00 77 1015.2
20260505031512 13 257 0.0 0.0 0.00 0.00 0.00 76 1015.2
20260505030043 14 257 0.0 0.0 0.00 0.00 0.00 74 1015.2
20260505024543 15 257 0.0 0.0 0.00 0.00 0.00 72 1015.3
20260505023102 15 257 0.0 0.0 0.00 0.00 0.00 68 1015.1
20260505023011 15 257 0.0 0.0 0.00 0.00 0.00 68 1015.1
20260505021600 16 257 0.0 1.6 0.00 0.00 0.00 66 1014.9
20260505020100 17 257 0.0 0.0 0.00 0.00 0.00 62 1014.8
20260505014557 17 257 0.0 0.0 0.00 0.00 0.00 60 1014.6
20260505013003 18 257 0.0 0.0 0.00 0.00 0.00 57 1014.6
20260505011503 19 257 0.0 0.0 0.00 0.00 0.00 52 1014.6
20260505010005 20 257 0.0 0.0 0.00 0.00 0.00 48 1014.5
20260505004503 21 257 0.0 0.0 0.00 0.00 0.00 44 1014.3
20260505003057 21 257 0.0 0.0 0.00 0.00 0.00 42 1014.3
20260505001620 22 257 0.0 0.0 0.00 0.00 0.00 40 1014.2
20260505000108 22 262 0.0 1.6 0.00 0.00 0.00 43 1014.2
20260504234558 22 262 0.0 1.6 0.00 0.00 0.00 40 1014.1
20260504233111 23 200 0.0 4.8 0.00 0.00 0.00 39 1014.1
20260504231559 23 239 0.0 3.2 0.00 0.00 0.00 39 1014.0
20260504230059 23 216 1.6 6.4 0.00 0.00 0.00 38 1014.0
20260504224558 24 265 0.0 3.2 0.00 0.00 0.00 39 1014.0
20260504223059 24 242 1.6 6.4 0.00 0.00 0.00 37 1014.0
20260504221558 24 193 1.6 4.8 0.00 0.00 0.00 38 1014.0
20260504220057 25 216 0.0 4.8 0.00 0.00 0.00 39 1014.1
20260504214606 25 241 0.0 3.2 0.00 0.00 0.00 39 1014.0
20260504213056 25 202 1.6 4.8 0.00 0.00 0.00 36 1014.0
20260504211554 25 192 1.6 4.8 0.00 0.00 0.00 36 1014.0
20260504210052 24 238 0.0 3.2 0.00 0.00 0.00 39 1014.1
20260504204553 24 256 1.6 4.8 0.00 0.00 0.00 41 1014.3
20260504203057 24 271 0.0 3.2 0.00 0.00 0.00 41 1014.3
20260504201551 24 11 0.0 3.2 0.00 0.00 0.00 41 1014.5
20260504200049 24 22 0.0 4.8 0.00 0.00 0.00 41 1014.7
20260504194553 24 183 0.0 3.2 0.00 0.00 0.00 38 1015.0
20260504193040 23 244 1.6 4.8 0.00 0.00 0.00 42 1015.1
20260504191536 23 259 0.0 4.8 0.00 0.00 0.00 44 1015.3
20260504190034 23 286 0.0 6.4 0.00 0.00 0.00 44 1015.7
20260504184530 22 259 0.0 1.6 0.00 0.00 0.00 46 1015.8
20260504183029 22 30 1.6 4.8 0.00 0.00 0.00 44 1016.0
20260504181527 22 24 0.0 4.8 0.00 0.00 0.00 45 1016.2
20260504180024 22 360 0.0 4.8 0.00 0.00 0.00 46 1016.5
20260504174521 22 13 1.6 4.8 0.00 0.00 0.00 47 1016.8
20260504173021 21 19 0.0 6.4 0.00 0.00 0.00 49 1016.9
20260504171522 21 32 0.0 6.4 0.00 0.00 0.00 48 1017.2